Miscellaneous Local Product
Issued by NWS Hastings, NE

Home | Current Version | Previous Version | Text Only | Print | Product List | Glossary Off
Versions: 1 2 3 4 5 6 7 8 9 10 11 12 13 14 15 16 17 18 19 20 21 22 23 24 25 26 27 28 29 30 31 32 33 34 35 36 37 38 39 40 41 42 43 44 45 46 47 48 49 50

010
AXUS43 KGID 191902
MISGRI

GID CWA HOURLY WEATHER ROUNDUP
NATIONAL WEATHER SERVICE HASTINGS NE
100 PM CST SUN FEB 19 2017

NOTE: "FAIR" INDICATES FEW OR NO CLOUDS BELOW 12,000 FEET WITH NO
SIGNIFICANT WEATHER AND/OR OBSTRUCTIONS TO VISIBILITY.

...SOUTH CENTRAL NEBRASKA...

CITY           SKY/WX    TMP DP  RH WIND       PRES   REMARKS
GRAND ISLAND   MOSUNNY   69  47  45 S22G32    29.76F
HASTINGS       CLOUDY    68  46  45 S18G28    29.77F
KEARNEY        CLOUDY    66  45  45 S23       29.74F
ORD            MOSUNNY   67  44  43 S25G32    29.71F
YORK           CLOUDY    64  50  59 S22       29.79F
AURORA         MOSUNNY   66  49  53 S16G25    29.77F
LEXINGTON      MOSUNNY   63  46  52 S18       29.72F
HOLDREGE       MOSUNNY   65  43  44 S20G26    29.75F
HEBRON         MOSUNNY   68  50  53 S17G24    29.82F

...NEBRASKA PANHANDLE...

CITY           SKY/WX    TMP DP  RH WIND       PRES   REMARKS
CHADRON        CLOUDY    65  31  28 S13G18    29.58F
ALLIANCE       CLOUDY    58  31  35 S6        29.64F
SCOTTSBLUFF    CLOUDY    53  33  46 SE7       29.64F
SIDNEY         CLOUDY    61  30  31 SE6       29.64F

...WESTERN AND NORTH CENTRAL NEBRASKA...

CITY           SKY/WX    TMP DP  RH WIND       PRES   REMARKS
VALENTINE      PTSUNNY   61  34  36 SW16      29.60F
AINSWORTH      CLOUDY    64  43  45 S18G24    29.63F
ONEILL         PTSUNNY   63  47  55 S14       29.69F
BROKEN BOW     MOSUNNY   64  46  52 S23G36    29.68F
IMPERIAL       CLOUDY    57  36  45 S10       29.69F
NORTH PLATTE   MOSUNNY   63  42  46 S16G23    29.70F
MCCOOK         CLOUDY    64  44  48 S16G22    29.70F

...EASTERN NEBRASKA...

CITY           SKY/WX    TMP DP  RH WIND       PRES   REMARKS
NORFOLK        MOSUNNY   62  48  60 S22G30    29.76F
SO SIOUX CITY  MOSUNNY   64  52  64 SE14      29.81F
TEKAMAH        MOSUNNY   66  51  58 S18       29.82F
COLUMBUS       CLOUDY    64  50  59 S18G25    29.80F
ALBION         MOSUNNY   65  50  56 S22       29.76F
OMAHA EPPLEY   CLOUDY    66  48  52 S21       29.83F
OFFUTT AFB     MOSUNNY   66  51  58 S16       29.84F
MILLARD        SUNNY     69  52  54 S16       29.83F
LINCOLN        PTSUNNY   68  50  52 S20G25    29.83F
NEBRASKA CITY  MOSUNNY   67  44  43 S18       29.87F
BEATRICE       SUNNY     70  52  53 S21       29.84F
FALLS CITY     CLOUDY    69  52  54 S15G24    29.88F

...NORTHERN KANSAS...

CITY           SKY/WX    TMP DP  RH WIND       PRES   REMARKS
GOODLAND       CLOUDY    65  38  36 S24G36    29.68F
HILL CITY      SUNNY     68  48  48 S12G22    29.76F
NORTON         CLEAR     68  41  37 S17G26    29.74F
PHILLIPSBURG   SUNNY     70  45  40 S15G23    29.77F
SMITH CENTER   SUNNY     64  46  52 S15G21    29.80F
HAYS           SUNNY     67  50  54 S17       29.78F
RUSSELL        SUNNY     65  51  60 SE16G24   29.79F
CONCORDIA      PTSUNNY   60  54  80 S15       29.84F
SALINA         CLOUDY    58  51  78 S13       29.87F
TOPEKA         MOSUNNY   66  54  65 S14G21    29.91F



USA.gov is the U.S. government's official web portal to all federal, state and local government web resources and services.